Simultaneous Nadir Overpasses (SNOs) Predictions

Prediction of SNOs between FY3D and NOAA-19 Satellite Orbit:

Table of predicted SNOs for the next 14.0 days since TLE Epoch: 12/25/2021
Index Date (FY3D) Time (FY3D) Lat,Lon (FY3D) SZA (FY3D ) Date (NOAA-19) Time (NOAA-19) Lat,Lon (NOAA-19) SZA (NOAA-19 ) Distance(km) Time Diff (sec)
1 01/02/2022 05:30:38 -77.93,-102.70 78.48 01/02/2022 05:29:27 -77.94,-102.80 78.44 2.45 71
2 01/02/2022 06:21:24 77.95, 64.50 101.55 01/02/2022 06:20:25 77.93, 64.41 101.56 3.10 59
3 01/02/2022 07:12:10 -77.95,-128.19 78.46 01/02/2022 07:11:27 -77.94,-128.27 78.44 1.98 43
4 01/02/2022 08:02:56 77.97, 39.01 101.57 01/02/2022 08:02:24 77.97, 39.16 101.57 3.45 32
5 01/02/2022 08:53:42 -77.97,-153.68 78.44 01/02/2022 08:53:27 -77.95,-153.74 78.45 2.78 15
6 01/02/2022 09:44:27 77.95, 13.74 101.54 01/02/2022 09:44:24 77.98, 13.70 101.57 3.29 3
7 01/02/2022 10:35:14 -77.99,-179.16 78.42 01/02/2022 10:35:26 -77.99,-178.99 78.43 3.97 12
8 01/02/2022 11:25:59 77.97, -11.75 101.56 01/02/2022 11:26:24 77.98, -11.77 101.57 1.58 25
9 01/02/2022 12:16:45 -77.97, 155.56 78.45 01/02/2022 12:17:26 -77.99, 155.54 78.43 2.99 41
10 01/02/2022 13:07:31 77.99, -37.24 101.58 01/02/2022 13:08:24 77.99, -37.23 101.57 0.13 53
11 01/02/2022 13:58:17 -77.99, 130.08 78.43 01/02/2022 13:59:26 -78.00, 130.07 78.44 1.27 69
12 01/02/2022 14:49:10 78.29, -64.24 101.97 01/02/2022 14:50:17 78.25, -61.14 101.71 70.23 67



Historial Predications of SNOs between FY3D and NOAA-19
